Home   Weather   Denmark   Næstved   Past weeks
Flag for Denmark

Past Weather in Næstved, Denmark — Yesterday and Last 2 Weeks

Currently: 39 °F. Fog. (Weather station: Koebenhavn / Roskilde, Denmark). See more current weather

Past Weather in Næstved — Graph

°F

Næstved Temperature Yesterday

Maximum temperature yesterday: 46 °F (at 1:50 pm)
Minimum temperature yesterday: 37 °F (at 7:20 am)
Average temperature yesterday: 41 °F

High & Low Weather Summary for the Past Weeks

 TemperatureHumidityPressure
High54 °F (Feb 16, 11:50 am)100% (Feb 15, 4:21 pm)30.51 "Hg (Feb 15, 4:21 pm)
Low28 °F (Feb 17, 11:50 pm)57% (Feb 23, 6:20 pm)28.77 "Hg (Feb 23, 2:20 am)
Average41 °F88%29.81 "Hg
* Reported Feb 15 4:21 pm — Mar 1 4:50 pm, Næstved. Weather by CustomWeather, © 2024

Note: Actual official high and low records may vary slightly from our data, if they occured in-between our weather recording intervals... More about our weather records

Næstved Weather History for the Previous 24 Hours

Scroll right to see more
 ConditionsComfort  
Time TempWeatherWind HumidityBarometerVisibility
4:50 pm
Fri, Mar 1
41 °FFog.9 mph100%29.71 "Hg0 mi
4:20 pm41 °FFog.9 mph100%29.71 "Hg1 mi
3:50 pm43 °FFog.10 mph93%29.71 "Hg2 mi
3:20 pm43 °FFog.12 mph93%29.71 "Hg2 mi
2:50 pm43 °FFog.12 mph93%29.71 "Hg3 mi
2:20 pm45 °FPartly sunny.14 mph87%29.68 "Hg4 mi
1:50 pm45 °FLow clouds.14 mph81%29.68 "Hg5 mi
1:20 pm43 °FLow clouds.12 mph93%29.68 "Hg4 mi
12:50 pm45 °FLow clouds.13 mph87%29.68 "Hg4 mi
12:20 pm43 °FFog.12 mph93%29.68 "Hg2 mi
11:50 am43 °FFog.10 mph93%29.68 "Hg2 mi
11:20 am43 °FFog.10 mph93%29.68 "Hg2 mi
10:50 am43 °FFog.10 mph93%29.68 "Hg2 mi
10:20 am43 °FFog.9 mph93%29.71 "Hg2 mi
9:50 am41 °FFog.12 mph100%29.71 "Hg2 mi
9:20 am41 °FFog.13 mph100%29.71 "Hg1 mi
8:50 am41 °FFog.14 mph100%29.71 "Hg1 mi
8:20 am41 °FFog.13 mph93%29.71 "Hg2 mi
7:50 am41 °FFog.15 mph93%29.71 "Hg2 mi
7:20 am41 °FFog.15 mph93%29.71 "Hg2 mi
6:50 am41 °FFog.15 mph93%29.71 "Hg2 mi
6:20 am41 °FFog.14 mph93%29.71 "Hg2 mi
5:50 am41 °FOvercast.15 mph93%29.71 "Hg3 mi
5:20 am39 °FFog.14 mph93%29.71 "Hg3 mi
4:50 am39 °FFog.15 mph93%29.71 "Hg2 mi
4:20 am37 °FFog.12 mph100%29.71 "Hg2 mi
3:50 am37 °FFog.13 mph100%29.74 "Hg3 mi
3:20 am37 °FFog.12 mph93%29.74 "Hg2 mi
2:50 am37 °FPassing clouds.12 mph93%29.74 "Hg3 mi
2:20 am37 °FPassing clouds.12 mph93%29.77 "Hg3 mi
1:50 am37 °FChilly.12 mph93%29.77 "Hg3 mi
1:20 am37 °FChilly.12 mph93%29.77 "Hg3 mi
12:50 am37 °FPassing clouds.12 mph93%29.77 "Hg3 mi
12:20 am37 °FPassing clouds.12 mph93%29.77 "Hg3 mi
11:50 pm
Thu, Feb 29
39 °FPassing clouds.13 mph87%29.80 "Hg4 mi
11:20 pm37 °FChilly.10 mph93%29.80 "Hg4 mi
10:50 pm39 °FChilly.10 mph87%29.80 "Hg5 mi
10:20 pm39 °FChilly.12 mph87%29.80 "Hg6 mi
9:50 pm39 °FChilly.10 mph87%29.80 "Hg6 mi
9:20 pm39 °FChilly.12 mph81%29.80 "HgN/A
8:50 pm39 °FChilly.12 mph87%29.80 "HgN/A
8:20 pm39 °FChilly.13 mph87%29.83 "HgN/A
7:50 pm39 °FChilly.12 mph87%29.83 "HgN/A
7:20 pm41 °FQuite cool.10 mph81%29.83 "HgN/A
6:50 pm41 °FQuite cool.12 mph81%29.83 "HgN/A
6:20 pm41 °FQuite cool.10 mph81%29.83 "HgN/A
Weather by CustomWeather, © 2024

See weather overview